Location: Unspecified
(0.0000°N, 0.0000°E)
Time: 19:17:47
(UTC+00:00)

MOZHAYETS 4 - Visible Passes

Search period start: 16 June 2025 00:00
Search period end: 26 June 2025 00:00
Orbit: 645 x 661 km, 98.3° (Epoch: 16 June)

Date Brightness Start Highest point End Pass type
(mag) Time Alt. Az. Time Alt. Az. Time Alt. Az.
16 Jun 9.0 04:19:31 10° SSE 04:23:41 39° ENE 04:27:49 10° N visible
17 Jun 7.5 04:46:44 10° S 04:51:12 83° W 04:55:38 10° NNW visible
18 Jun 10.9 03:41:37 10° E 03:42:14 10° ENE 03:42:51 10° ENE visible
18 Jun 8.3 05:14:41 10° SSW 05:18:41 33° WSW 05:22:41 10° NW visible
19 Jun 9.9 04:06:04 10° SE 04:09:43 25° ENE 04:13:20 10° NNE visible
20 Jun 8.1 04:32:49 10° SSE 04:37:13 61° ENE 04:41:36 10° N visible
21 Jun 7.7 05:00:22 10° S 05:04:42 53° WSW 05:09:03 10° NNW visible
22 Jun 10.5 03:53:01 10° ESE 03:55:44 16° ENE 03:58:26 10° NE visible
22 Jun 8.8 05:28:45 10° SSW 05:32:12 22° WSW 05:35:39 10° NW visible
23 Jun 9.1 04:19:06 10° SE 04:23:13 37° ENE 04:27:20 10° N visible
24 Jun 7.6 04:46:15 10° S 04:50:43 87° WSW 04:55:10 10° NNW visible
25 Jun 8.2 05:14:09 10° SSW 05:18:13 35° WSW 05:22:15 10° NW visible
